TimeEDT,TemperatureF,Dew PointF,Humidity,Sea Level PressureIn,VisibilityMPH,Wind Direction,Wind SpeedMPH,Gust SpeedMPH,PrecipitationIn,Events,Conditions,WindDirDegrees,DateUTC
12:51 AM,27.0,12.9,56,30.14,10.0,ENE,12.7,-,N/A,,Overcast,70,2013-04-12 04:51:00
1:51 AM,27.0,12.9,56,30.10,10.0,ENE,12.7,23.0,N/A,,Overcast,60,2013-04-12 05:51:00
2:51 AM,27.0,15.1,61,30.09,10.0,ENE,12.7,20.7,N/A,,Overcast,60,2013-04-12 06:51:00
3:51 AM,26.1,18.0,71,30.07,10.0,ENE,15.0,19.6,0.00,,Overcast,60,2013-04-12 07:51:00
4:48 AM,26.6,19.4,74,29.99,7.0,ENE,13.8,-,0.01,Rain,Light Freezing Rain,60,2013-04-12 08:48:00
4:51 AM,26.1,19.9,78,30.05,7.0,ENE,11.5,-,0.01,Rain,Light Freezing Rain,60,2013-04-12 08:51:00
5:51 AM,26.1,23.0,88,30.02,4.0,ENE,17.3,21.9,0.04,Rain,Light Freezing Rain,70,2013-04-12 09:51:00
5:59 AM,26.6,23.0,86,29.95,4.0,ENE,13.8,-,0.01,Rain,Light Freezing Rain,60,2013-04-12 09:59:00
6:51 AM,26.1,24.1,92,29.99,9.0,ENE,11.5,-,0.02,Rain,Light Freezing Rain,70,2013-04-12 10:51:00
6:58 AM,26.6,24.8,93,29.92,9.0,East,10.4,-,N/A,,Overcast,80,2013-04-12 10:58:00
7:14 AM,26.6,24.8,93,29.92,5.0,ENE,6.9,-,0.02,Rain,Light Freezing Rain,70,2013-04-12 11:14:00
7:20 AM,26.6,24.8,93,29.91,1.8,ENE,8.1,-,0.04,Rain,Light Freezing Rain,70,2013-04-12 11:20:00
7:36 AM,28.4,26.6,93,29.89,3.0,ENE,16.1,-,0.06,Rain,Light Freezing Rain,60,2013-04-12 11:36:00
7:45 AM,28.4,24.8,86,29.88,2.5,ENE,13.8,-,0.06,Rain,Light Freezing Rain,60,2013-04-12 11:45:00
7:51 AM,28.0,26.1,92,29.94,4.0,ENE,12.7,21.9,0.06,Rain,Light Freezing Rain,60,2013-04-12 11:51:00
8:06 AM,28.4,26.6,93,29.85,8.0,ENE,10.4,-,0.00,,Overcast,60,2013-04-12 12:06:00
8:34 AM,28.4,26.6,93,29.84,10.0,ENE,8.1,-,0.00,,Overcast,70,2013-04-12 12:34:00
8:51 AM,30.0,27.0,88,29.88,10.0,ENE,9.2,16.1,0.00,,Overcast,70,2013-04-12 12:51:00
9:51 AM,30.0,28.0,92,29.83,10.0,East,8.1,-,N/A,,Overcast,80,2013-04-12 13:51:00
10:51 AM,30.9,28.9,92,29.81,3.0,ENE,9.2,-,0.02,Rain,Light Freezing Rain,70,2013-04-12 14:51:00
10:59 AM,30.2,28.4,93,29.75,2.0,ENE,8.1,-,0.03,Rain,Light Freezing Rain,60,2013-04-12 14:59:00
11:17 AM,32.0,30.2,93,29.73,1.8,East,10.4,-,0.09,Rain,Light Freezing Rain,90,2013-04-12 15:17:00
11:34 AM,32.0,30.2,93,29.72,2.0,East,11.5,-,0.16,Rain,Light Freezing Rain,100,2013-04-12 15:34:00
11:51 AM,32.0,30.0,92,29.76,3.0,East,11.5,-,0.20,,Overcast,80,2013-04-12 15:51:00
12:18 PM,33.8,30.2,87,29.70,2.0,East,6.9,-,0.06,Rain,Rain,100,2013-04-12 16:18:00
12:51 PM,34.0,30.9,89,29.76,2.0,ESE,9.2,17.3,0.17,Rain,Heavy Rain,110,2013-04-12 16:51:00
1:51 PM,33.1,30.9,92,29.76,4.0,SE,6.9,-,0.13,Rain,Rain,130,2013-04-12 17:51:00
2:51 PM,34.0,30.9,89,29.72,10.0,SE,8.1,-,0.01,,Overcast,140,2013-04-12 18:51:00
3:51 PM,35.1,30.9,85,29.69,8.0,SSE,10.4,17.3,0.00,,Overcast,150,2013-04-12 19:51:00
4:47 PM,35.6,32.0,87,29.63,10.0,SE,9.2,19.6,0.00,,Overcast,140,2013-04-12 20:47:00
4:51 PM,36.0,32.0,86,29.68,10.0,SE,9.2,-,0.00,,Overcast,140,2013-04-12 20:51:00
6:51 PM,36.0,34.0,93,29.71,5.0,South,4.6,-,0.01,,Overcast,180,2013-04-12 22:51:00
6:57 PM,35.6,33.8,93,29.65,1.8,Calm,Calm,-,0.01,Rain,Rain,0,2013-04-12 22:57:00
7:04 PM,35.6,33.8,93,29.66,3.0,South,3.5,-,0.01,Rain,Light Rain,190,2013-04-12 23:04:00
7:51 PM,34.0,34.0,100,29.71,9.0,Calm,Calm,-,0.02,,Overcast,0,2013-04-12 23:51:00
8:51 PM,34.0,33.1,96,29.73,10.0,Calm,Calm,-,0.00,,Overcast,0,2013-04-13 00:51:00
9:51 PM,34.0,33.1,96,29.75,10.0,West,3.5,-,0.00,,Overcast,260,2013-04-13 01:51:00
10:51 PM,34.0,33.1,96,29.75,10.0,Calm,Calm,-,N/A,,Overcast,0,2013-04-13 02:51:00
11:51 PM,35.1,33.1,92,29.75,10.0,SW,5.8,-,N/A,,Overcast,220,2013-04-13 03:51:00